Amsterdam, Netherlands

12:28 PM CET on December 06, 2019 (GMT +0100)
Schiphol

Weather History for EHAM - October, 2019

Change the Weather History Date:

Sunday, October 20, 2019

  Actual Average Record
Temperature  
Mean Temperature 51 °F -  
Max Temperature 57 °F 51 °F 69 °F (2001)
Min Temperature 45 °F 41 °F 35 °F (2007)
Degree Days  
Heating Degree Days 14    
Growing Degree Days 1 (Base 50)    
Moisture  
Dew Point 50 °F    
Average Humidity 91    
Maximum Humidity 100    
Minimum Humidity 76    
Precipitation  
Precipitation 0.00 in - - ()
Sea Level Pressure  
Sea Level Pressure 29.77 in    
Wind  
Wind Speed 5 mph ()    
Max Wind Speed 12 mph    
Max Gust Speed -    
Visibility 6.9 miles    
Events      
Averages and records for this station are not official NWS values.
T = Trace of Precipitation, MM = Missing Value Source: Averaged Metar Reports

Daily Weather History Graph

Daily Weather History Graph

Search for Another Location

Airport or City:

Astronomy

Oct. 20, 2019 Rise Set
Actual Time 8:14 AM CEST 6:36 PM CEST
Civil Twilight 7:39 AM CEST 7:11 PM CEST
Nautical Twilight 7:00 AM CEST 7:50 PM CEST
Astronomical Twilight 6:20 AM CEST 8:29 PM CEST
Moon 10:56 PM CEST (10/20) 3:01 PM CEST (10/20)
Length of Visible Light 11h 31m
Length of Day
10h 22m
Waning Gibbous, 62% of the Moon is Illuminated
Oct 20
Waning Gibbous
Oct 21
Last Quarter
Oct 28
New
Nov 4
First Quarter
Nov 12
Full

Hourly Weather History & Observations

Time (CEST) Temp. Windchill Dew Point Humidity Pressure Visibility Wind Dir Wind Speed Gust Speed Precip Events Conditions
12:00 AM 50 °F - 48 °F 90% 29.69 in 17 mi South 6.7 mph - -   Partly Cloudy
12:25 AM 50.0 °F - 48.2 °F 94% 29.68 in - South 8.1 mph - N/A   Clear
12:55 AM 50.0 °F - 48.2 °F 94% 29.68 in - South 8.1 mph - N/A   Clear
1:00 AM 50 °F - 48 °F 90% 29.70 in 14 mi SSW 8.9 mph - -   Partly Cloudy
1:25 AM 50.0 °F - 48.2 °F 94% 29.68 in - South 9.2 mph - N/A   Clear
1:55 AM 50.0 °F - 48.2 °F 94% 29.68 in - SSE 8.1 mph - N/A   Clear
2:00 AM 51 °F - 48 °F 87% 29.70 in 13 mi South 8.9 mph - -   Partly Cloudy
2:25 AM 50.0 °F - 48.2 °F 94% 29.71 in - South 6.9 mph - N/A   Clear
2:55 AM 50.0 °F - 48.2 °F 94% 29.71 in 6.2 mi SSW 6.9 mph - N/A   Partly Cloudy
3:25 AM 48.2 °F - 48.2 °F 100% 29.71 in 6.2 mi West 3.5 mph - N/A   Partly Cloudy
3:55 AM 48.2 °F - 46.4 °F 93% 29.71 in 6.2 mi South 4.6 mph - N/A   Partly Cloudy
4:00 AM 48 °F - 47 °F 93% 29.71 in 9 mi South 4.5 mph - -   Partly Cloudy
4:25 AM 48.2 °F - 48.2 °F 100% 29.71 in 6.2 mi SSE 5.8 mph - N/A   Partly Cloudy
4:55 AM 46.4 °F 43.5 °F 46.4 °F 100% 29.71 in 6.2 mi South 5.8 mph - N/A   Partly Cloudy
5:25 AM 48.2 °F - 46.4 °F 93% 29.71 in 6.2 mi SE 3.5 mph - N/A   Partly Cloudy
6:00 AM 48 °F - 47 °F 95% 29.73 in 7 mi SSE 6.7 mph - -   Partly Cloudy
6:25 AM 48.2 °F - 46.4 °F 93% 29.71 in 6.2 mi South 5.8 mph - N/A   Partly Cloudy
6:55 AM 46.4 °F 45.2 °F 46.4 °F 100% 29.71 in 6.2 mi SSE 3.5 mph - N/A   Partly Cloudy
7:25 AM 48.2 °F - 46.4 °F 93% 29.74 in 6.2 mi SSE 5.8 mph - N/A   Partly Cloudy
7:55 AM 48.2 °F - 46.4 °F 93% 29.74 in 6.2 mi SSE 4.6 mph - N/A   Partly Cloudy
8:25 AM 48.2 °F - 46.4 °F 93% 29.74 in 5.0 mi SE 3.5 mph - N/A   Unknown
8:55 AM 48.2 °F - 48.2 °F 100% 29.74 in - SSE 3.5 mph - N/A   Clear
9:00 AM 48 °F - 47 °F 97% 29.76 in 4 mi SSE 4.5 mph - -   Mist
9:25 AM 48.2 °F - 48.2 °F 100% 29.74 in 6.2 mi SSE 3.5 mph - N/A   Partly Cloudy
9:55 AM 50.0 °F - 48.2 °F 94% 29.77 in - SE 2.3 mph - N/A   Clear
10:00 AM 50 °F - 49 °F 95% 29.77 in 6 mi SE 2.2 mph - -   Mist
10:25 AM 51.8 °F - 50.0 °F 94% 29.77 in - Variable 2.3 mph - N/A   Clear
10:55 AM 53.6 °F - 50.0 °F 88% 29.77 in 6.2 mi SSE 3.5 mph - N/A   Partly Cloudy
11:00 AM 53 °F - 51 °F 91% 29.79 in 7 mi SE 2.2 mph - -   Partly Cloudy
11:25 AM 53.6 °F - 51.8 °F 94% 29.77 in - Variable 2.3 mph - N/A   Clear
11:55 AM 53.6 °F - 51.8 °F 94% 29.80 in 6.2 mi SSE 2.3 mph - N/A   Partly Cloudy
12:00 PM 54 °F - 51 °F 87% 29.81 in 7 mi ESE 2.2 mph - -   Partly Cloudy
12:25 PM 55.4 °F - 51.8 °F 88% 29.80 in 6.2 mi Variable 2.3 mph - N/A   Partly Cloudy
12:55 PM 55.4 °F - 51.8 °F 88% 29.80 in 6.2 mi Variable 2.3 mph - N/A   Partly Cloudy
1:00 PM 56 °F - 52 °F 83% 29.80 in 9 mi Calm Calm - -   Partly Cloudy
1:25 PM 55.4 °F - 51.8 °F 88% 29.80 in 6.2 mi SE 2.3 mph - N/A   Partly Cloudy
1:55 PM 55.4 °F - 51.8 °F 88% 29.80 in 6.2 mi Variable 2.3 mph - N/A   Partly Cloudy
2:25 PM 55.4 °F - 53.6 °F 94% 29.80 in 6.2 mi SE 4.6 mph - N/A   Partly Cloudy
2:55 PM 57.2 °F - 53.6 °F 88% 29.80 in 6.2 mi East 1.2 mph - N/A   Partly Cloudy
3:25 PM 57.2 °F - 51.8 °F 82% 29.80 in 6.2 mi East 3.5 mph - N/A   Partly Cloudy
3:55 PM 57.2 °F - 51.8 °F 82% 29.80 in 6.2 mi Variable 2.3 mph - N/A   Partly Cloudy
4:00 PM 57 °F - 52 °F 76% 29.82 in 13 mi ESE 2.2 mph - -   Partly Cloudy
4:25 PM 57.2 °F - 50.0 °F 77% 29.80 in 6.2 mi NE 5.8 mph - N/A   Partly Cloudy
4:55 PM 57.2 °F - 50.0 °F 77% 29.80 in 6.2 mi NE 5.8 mph - N/A   Partly Cloudy
5:25 PM 55.4 °F - 50.0 °F 82% 29.80 in 6.2 mi NNE 8.1 mph - N/A   Scattered Clouds
5:55 PM 55.4 °F - 50.0 °F 82% 29.80 in 6.2 mi NNE 6.9 mph - N/A   Scattered Clouds
6:00 PM 55 °F - 50 °F 78% 29.82 in 14 mi NNE 6.7 mph - -   Partly Cloudy
6:25 PM 53.6 °F - 50.0 °F 88% 29.80 in 6.2 mi NNE 6.9 mph - N/A   Partly Cloudy
6:55 PM 53.6 °F - 50.0 °F 88% 29.83 in 6.2 mi NNE 5.8 mph - N/A   Partly Cloudy
7:25 PM 53.6 °F - 48.2 °F 82% 29.83 in - NNE 5.8 mph - N/A   Clear
7:55 PM 53.6 °F - 48.2 °F 82% 29.83 in - NE 5.8 mph - N/A   Clear
8:25 PM 53.6 °F - 50.0 °F 88% 29.86 in - NE 5.8 mph - N/A   Clear
8:55 PM 53.6 °F - 50.0 °F 88% 29.83 in 6.2 mi NNE 5.8 mph - N/A   Partly Cloudy
9:00 PM 53 °F - 51 °F 89% 29.86 in 4 mi NNE 6.7 mph - -   Mist
9:25 PM 53.6 °F - 51.8 °F 94% 29.86 in 6.2 mi NNE 6.9 mph - N/A   Partly Cloudy
9:55 PM 53.6 °F - 51.8 °F 94% 29.86 in 5.6 mi NNE 6.9 mph - N/A   Scattered Clouds
10:00 PM 53 °F - 52 °F 93% 29.87 in 4 mi NE 6.7 mph - -   Mist
10:25 PM 53.6 °F - 51.8 °F 94% 29.86 in 5.0 mi NNE 8.1 mph - N/A   Scattered Clouds
10:55 PM 53.6 °F - 51.8 °F 94% 29.86 in 4.3 mi NNE 9.2 mph - N/A   Scattered Clouds
11:25 PM 53.6 °F - 51.8 °F 94% 29.86 in 4.3 mi NE 8.1 mph - N/A   Scattered Clouds
11:55 PM 53.6 °F - 51.8 °F 94% 29.86 in 4.3 mi NE 11.5 mph - N/A   Scattered Clouds